TEVEL2-8

Last updated on Mon Sep 15 2025 00:03:10 GMT+0000 (Coordinated Universal Time)

1 63239U 25052AF 25256.67544289 .00010302 00000+0 46595-3 0 9999 2 63239 97.4211 149.0619 0009548 51.0394 309.1691 15.21070225 27831
UTC large
Height (km)
Speed (km/s)
/
Latitude / Longitude
Inclination (degrees)
Orbital Period (minutes)
Azimuth
Elevation
Range (km)
Doppler Factor

Next 0 passes for location: London (51.5072 / 0.1276)

Sorry there are no passes over London.